Location: Oshawa
(43.9000°N, 78.8670°W)
Time: 13:21:35
(UTC-04:00)

Daily predictions for brighter satellites

Satellite Brightness Start Highest point End
(mag) Time Altitude Azimuth Time Altitude Azimuth Time Altitude Azimuth
Cosmos 1140 Rocket 4.1 20:38:25 10° N 20:43:21 40° ENE 20:48:16 10° SE
SL-8 R/B 4.4 20:38:52 10° W 20:43:33 53° N 20:48:16 10° ENE
Meteor 1-20 Rocket 4.2 20:39:41 10° S 20:45:14 74° E 20:50:43 10° NNE
Cosmos 1954 Rocket 4.4 20:40:58 10° N 20:46:08 50° ENE 20:51:18 10° SE
Cosmos 1441 Rocket 3.2 20:43:50 10° NNW 20:47:35 83° W 20:51:19 10° S
SL-16 R/B 3.2 20:44:55 10° SSE 20:49:18 24° ESE 20:53:41 10° NE
Cosmos 405 Rocket 3.8 20:47:44 10° NNW 20:51:24 47° W 20:55:07 10° S
Okean 2 Rocket 3.1 20:49:19 10° S 20:53:46 71° E 20:58:16 10° NNE
Cosmos 614 Rocket 4.5 20:48:59 10° N 20:53:50 42° ENE 20:58:41 10° SE
H-2A R/B 4.0 20:53:13 10° ENE 20:54:49 11° ENE 20:56:24 10° NE
Lacrosse 5 3.5 21:03:51 10° SE 21:05:40 12° ESE 21:07:29 10° E
Helios 1A 3.6 21:02:14 10° SE 21:06:13 41° ENE 21:10:13 10° N
ERBS 2.5 21:03:10 10° SSW 21:06:33 51° SE 21:09:56 10° ENE
Envisat 3.0 21:04:30 10° SSE 21:09:35 88° WSW 21:14:43 10° NNW
Resurs 1-3 4.2 21:05:32 10° S 21:09:51 58° W 21:14:12 10° NNW
ERS-1 Rocket 3.9 21:06:07 11° SE 21:10:11 30° ENE 21:14:32 10° N
Cosmos 2360 Rocket 3.7 21:14:00 13° ESE 21:15:45 15° E 21:18:51 10° ENE
Cosmos 1980 Rocket 2.4 21:10:39 10° SSW 21:16:16 76° WNW 21:21:53 10° NNE
ATLAS 3B R/B 3.9 21:11:06 10° NNW 21:16:56 28° NE 21:22:26 10° E
Atlas Centaur 2 3.8 21:10:56 10° SW 21:17:20 27° S 21:21:48 14° SE
Meteor 2-4 Rocket 4.0 21:14:15 10° N 21:19:37 50° ENE 21:24:40 12° SSE
YAOGAN 6 2.5 21:20:50 12° SSE 21:24:08 69° ENE 21:27:40 10° N
Cosmos 1633 3.4 21:21:14 10° SSW 21:24:45 52° W 21:28:20 10° N
Cosmos 44 3.3 21:21:52 10° NW 21:26:16 70° WSW 21:30:11 14° SSE
S3M 4.0 21:21:20 10° N 21:27:36 85° E 21:33:56 10° S
Cosmos 1553 Rocket 4.0 21:25:09 10° N 21:31:21 84° W 21:37:27 10° S
Cosmos 1697 Rocket 4.5 21:27:47 10° WSW 21:32:55 36° NW 21:38:06 10° N
NOAA 11 4.4 21:28:33 15° SE 21:32:59 55° ENE 21:38:21 10° N
Resurs 01 Rocket 3.6 21:32:14 10° SSW 21:36:06 29° W 21:40:00 10° NW
Cosmos 1452 Rocket 3.8 21:35:25 10° SSW 21:40:40 70° WNW 21:45:59 10° NNE
Cosmos 2266 Rocket 3.9 21:34:52 10° S 21:40:47 60° E 21:46:43 10° NNE
Okean 1-7 Rocket 4.5 21:37:05 10° N 21:41:07 32° ENE 21:42:50 24° ESE
Cosmos 1850 Rocket 4.0 21:37:10 10° NNW 21:42:32 73° ENE 21:46:09 21° SSE
Cosmos 839 Rocket 4.1 21:36:31 10° SW 21:42:45 82° WNW 21:49:06 10° NNE
Okean 1 Rocket 3.3 21:41:27 19° SSE 21:44:11 45° E 21:48:21 10° NNE
GPS 2-05 Rocket1 4.4 21:42:18 10° SW 21:44:35 19° S 21:44:35 19° S
Meteor 1-11 Rocket 3.8 21:39:52 10° S 21:45:45 88° E 21:51:33 10° N
Cosmos 1420 Rocket 4.0 21:40:42 10° SSW 21:45:53 88° WNW 21:51:06 10° NNE
Cosmos 1607 4.3 21:40:45 10° NNW 21:47:06 57° NE 21:51:05 23° ESE
ATLAS 2AS CENTAUR R/B 3.3 21:40:27 10° S 21:47:35 44° ESE 21:55:07 10° NE
CZ-4B DEB 2.4 21:48:27 35° S 21:49:33 87° W 21:52:26 10° NNW
Cosmos 1300 Rocket 3.4 21:48:43 10° S 21:53:01 85° E 21:57:21 10° N
Abrixas rocket 3.5 21:51:05 10° W 21:54:12 39° N 21:56:35 15° ENE
Tiangong 1 0.6 21:51:43 10° W 21:54:29 67° S 21:54:37 65° SSE
Cosmos 2151 Rocket 4.4 21:50:52 10° SSW 21:55:08 51° WNW 21:59:27 10° N
SPOT 1/Viking Rocket 4.4 21:53:10 25° ESE 21:55:20 35° ENE 22:00:03 10° N
NOSS 2-3 (E) 3.8 21:53:42 10° SSW 21:58:18 60° ESE 22:03:39 10° NE
Terra 3.4 22:02:21 19° E 22:03:21 20° ENE 22:06:49 10° NNE
Cosmos 1025 Rocket 3.1 22:00:20 10° N 22:04:33 57° E 22:05:50 39° SE
Helios 1B rocket 2.9 22:03:22 10° N 22:07:25 60° WNW 22:11:28 10° SSW
BREEZE-M DEB 4.2 21:59:20 10° WNW 22:09:18 52° N 22:11:23 23° ENE
USA 245 4.0 22:06:58 31° SSE 22:09:29 65° ENE 22:14:03 10° N
MetOp-A 4.1 22:06:52 25° SSE 22:10:04 90° SW 22:15:27 10° NNW
Cosmos 220 Rocket 3.9 22:09:18 10° NNW 22:13:36 73° ENE 22:14:45 47° SE
Meteor 1-23 Rocket 4.3 22:09:29 10° NNW 22:15:04 78° W 22:18:31 24° S
Cosmos 1536 3.6 22:11:22 10° SSW 22:15:21 53° W 22:19:22 10° N
H-2A R/B 4.1 22:16:18 14° ENE 22:16:33 14° ENE 22:18:47 10° NNE
Cosmos 1932 4.5 22:11:49 10° NNW 22:18:22 79° NE 22:21:14 35° SE
SAR-Lupe-4 4.3 22:17:08 31° SSW 22:18:28 49° W 22:21:59 10° NNW
Lacrosse 5 rocket 2.9 22:16:18 10° WNW 22:19:12 22° SW 22:20:14 19° SSW
Cosmos 2278 Rocket 4.3 22:16:34 10° N 22:19:31 14° NE 22:22:08 11° ENE
SL-08 RB Rocket 3.6 22:19:26 44° SSE 22:20:49 75° ENE 22:25:22 10° N
Cosmos 2322 Rocket 2.7 22:18:02 10° SW 22:23:41 63° WNW 22:29:22 10° NNE
Cosmos 1238 Rocket 4.3 22:17:58 10° N 22:24:37 56° ENE 22:27:03 37° SE
Cosmos 2263 Rocket 2.4 22:19:45 10° NNW 22:25:25 67° WSW 22:28:02 32° S
ARGOS 3.1 22:23:10 33° S 22:25:42 82° WSW 22:31:06 10° NNW
SL-8 R/B 4.2 22:21:53 10° WNW 22:26:36 54° N 22:28:42 30° ENE
BREEZE-M (TANK) 4.3 22:10:35 10° WNW 22:26:40 64° N 22:29:08 28° E
BREEZE-M DEB (TANK) 3.6 22:26:34 10° WSW 22:30:15 77° NNW 22:43:42 10° ENE
NOSS 2-3 (C) 4.0 22:27:12 10° SW 22:31:55 77° NW 22:37:32 10° NE
SL-16 R/B 2.9 22:27:27 10° SW 22:32:59 54° WNW 22:38:34 10° NNE
H-2A R/B 1.9 22:31:59 48° SSE 22:33:27 80° ENE 22:38:29 10° NNW
Cosmos 1844 Rocket 3.5 22:29:01 10° N 22:34:14 36° NE 22:35:38 32° E
Cosmos 1892 Rocket 3.6 22:32:24 10° N 22:36:48 57° E 22:36:54 57° E
Cosmos 1515 3.6 22:34:09 10° N 22:37:58 82° W 22:38:01 82° WSW
BREEZE M DEB (TANK) 4.1 22:31:48 10° WNW 22:38:12 39° N 22:39:29 27° NE
SPOT 5 2.9 22:37:07 45° S 22:38:38 76° WSW 22:43:24 10° NNW
Cosmos 2322 3.6 22:38:31 45° SSE 22:40:01 62° ESE 22:45:37 10° NNE
USA 238 DEB 3.9 22:36:08 10° NNW 22:43:13 68° NE 22:45:49 41° ESE
USA 238 3.9 22:36:15 10° NNW 22:43:19 67° NE 22:45:55 41° ESE
COSMOS 2428 3.4 22:47:38 36° E 22:47:38 36° E 22:51:56 10° NE
Cosmos 2219 Rocket 3.9 22:49:10 18° ENE 22:49:10 18° ENE 22:51:17 10° NE
Lacrosse 5 1.7 22:42:45 10° SW 22:47:48 72° SE 22:52:52 10° NE
EXPRESS MD2 4.4 22:44:57 10° W 22:48:19 54° NNW 22:55:01 10° ENE
ERS-1 Rocket 4.3 22:46:08 20° SSW 22:48:52 35° W 22:53:27 10° NNW
Okean 2 4.1 22:47:35 10° NNW 22:51:32 47° W 22:52:05 44° WSW
Cosmos 1544 Rocket 3.8 22:55:00 58° NE 22:55:00 58° NE 22:58:52 10° NNE
Cosmos 405 4.3 22:56:25 35° NNE 22:56:25 35° NNE 22:58:38 10° NNE
Cosmos 1500 3.6 22:56:17 64° NW 22:56:17 64° NW 22:59:46 10° N
Nadezhda 1 Rocket 4.1 22:51:33 10° N 22:57:45 57° ENE 22:58:46 51° ESE
Cosmos 2360 Rocket 2.2 22:55:38 25° SSW 22:59:00 79° WNW 23:04:40 10° NNE
Cosmos 1844 4.3 22:54:14 10° NNW 22:59:38 43° ENE 23:00:23 41° ENE
Cosmos 2333 Rocket 3.9 23:03:16 18° ENE 23:03:16 18° ENE 23:05:16 10° NE
Atlas Centaur 2 4.0 23:00:35 10° WSW 23:04:26 20° SSW 23:04:26 20° SSW
Cosmos 1486 Rocket 3.8 23:01:41 10° NNW 23:06:59 83° ENE 23:07:12 80° ESE
Cosmos 1455 Rocket 3.4 23:08:11 59° NNE 23:08:11 59° NNE 23:11:52 10° N
ATLAS 3B R/B 2.5 23:01:35 10° NW 23:08:21 79° SW 23:09:41 59° SSE
Cosmos 1302 Rocket 3.9 23:10:20 78° E 23:10:20 78° E 23:15:32 10° NNE
DMSP B5D2-2 4.0 23:05:59 10° NNE 23:11:16 84° WNW 23:11:56 68° SSW
NOSS 3-2 (C) 4.4 23:12:49 10° NNW 23:20:04 55° NE 23:22:35 41° E
CZ-2C R/B 4.5 23:25:28 23° NE 23:25:28 23° NE 23:28:37 10° NNE
Landsat 7 4.4 23:25:25 49° W 23:25:25 49° W 23:30:03 10° NNW
Cosmos 2237 Rocket 4.0 23:30:08 19° ENE 23:30:08 19° ENE 23:32:08 10° NE
Cosmos 1975 4.1 23:29:56 37° NW 23:29:56 37° NW 23:33:09 10° N
Meteor 1-12 Rocket 4.5 23:28:22 54° SW 23:29:23 64° WNW 23:35:01 10° N
Meteor 1-21 4.1 23:24:34 10° N 23:30:03 75° ENE 23:30:03 75° ENE
BREEZE-M DEB (TANK) 4.3 23:10:36 10° WSW 23:32:11 81° NNW 23:36:20 16° ENE
Cosmos 1818 4.4 23:39:18 40° NE 23:39:18 40° NE 23:42:47 10° NE
ATLAS 2AS CENTAUR R/B 3.7 23:30:56 10° WSW 23:38:33 53° NW 23:46:32 10° NNE
Terra 2.6 23:41:15 47° WNW 23:41:15 47° WNW 23:45:23 10° NNW
Cosmos 1354 Rocket 4.2 23:35:51 10° NNW 23:40:39 72° N 23:40:39 72° N
USA 81 4.4 23:42:07 10° N 23:46:29 57° NNE 23:46:29 57° NNE
NOSS 3-4 (A) 4.2 23:50:30 39° ENE 23:50:30 39° ENE 23:54:46 10° NE
NOSS 3-4 (C) 4.3 23:50:38 39° ENE 23:50:38 39° ENE 23:54:52 10° NE
Cosmos 1745 Rocket 4.4 23:50:35 48° WSW 23:51:42 55° WNW 23:57:44 10° N
H-2A R/B 3.3 23:53:26 39° NW 23:53:26 39° NW 23:56:20 10° NNW
COSMOS 2455 4.4 23:49:12 10° NNW 23:54:07 25° NE 23:55:38 23° ENE
